GFSCGP_sfc_vis_276.txt.gz
Visibility
15.0 15.0 15.0 15.0 15.0 15.0 15.0 15.0 15.0 15.0 15.0 15.0 15.0 15.0 15.0 15.0 15.0 15.0 15.0 15.0 15.0 15.0 15.0 15.0 15.0 15.0 15.0 15.0 15.0 15.0 15.0 15.0 15.0 15.0 15.0 15.0 15.0 15.0 15.0 15.0 15.0 15.0 15.0 15.0
15.0 15.0 15.0 15.0 15.0 15.0 15.0 15.0 15.0 15.0 15.0 15.0 15.0 15.0 15.0 15.0 15.0 15.0 15.0 15.0 15.0 15.0 15.0 15.0 15.0 15.0 15.0 15.0 15.0 14.7 15.0 15.0 15.0 15.0 15.0 15.0 15.0 15.0 15.0 15.0 15.0 15.0 15.0 15.0
15.0 15.0 15.0 15.0 15.0 15.0 15.0 15.0 15.0 15.0 15.0 15.0 15.0 15.0 15.0 15.0 15.0 15.0 15.0 15.0 15.0 15.0 15.0 15.0 15.0 6.3 0.9 8.1 13.2 14.2 15.0 15.0 15.0 15.0 15.0 15.0 15.0 15.0 15.0 15.0 15.0 15.0 15.0 15.0
15.0 15.0 15.0 15.0 15.0 15.0 15.0 15.0 15.0 15.0 15.0 15.0 11.7 15.0 15.0 15.0 15.0 15.0 15.0 15.0 15.0 15.0 15.0 15.0 15.0 15.0 1.0 3.0 13.4 10.1 12.8 15.0 15.0 15.0 15.0 15.0 15.0 15.0 15.0 15.0 15.0 15.0 15.0 15.0
15.0 15.0 15.0 15.0 15.0 15.0 15.0 15.0 15.0 15.0 14.6 6.7 15.0 1.0 15.0 15.0 15.0 15.0 15.0 15.0 15.0 15.0 15.0 15.0 1.5 0.3 0.3 0.5 2.2 1.2 15.0 15.0 15.0 15.0 15.0 15.0 15.0 15.0 15.0 15.0 15.0 15.0 15.0 15.0
15.0 15.0 15.0 15.0 15.0 15.0 15.0 15.0 15.0 15.0 8.3 2.1 15.0 15.0 15.0 15.0 15.0 15.0 15.0 15.0 15.0 15.0 15.0 15.0 6.0 0.3 0.5 1.3 7.4 15.0 15.0 15.0 15.0 15.0 15.0 15.0 15.0 15.0 15.0 15.0 15.0 15.0 15.0 15.0
15.0 15.0 15.0 15.0 15.0 15.0 15.0 15.0 15.0 14.0 14.7 15.0 15.0 15.0 15.0 15.0 15.0 15.0 15.0 15.0 15.0 15.0 15.0 15.0 11.3 0.5 0.8 7.8 15.0 15.0 15.0 15.0 15.0 15.0 15.0 15.0 15.0 15.0 15.0 15.0 15.0 13.2 4.2 12.7
15.0 15.0 15.0 15.0 15.0 15.0 15.0 15.0 15.0 15.0 15.0 15.0 15.0 15.0 15.0 15.0 15.0 15.0 15.0 15.0 15.0 15.0 15.0 15.0 15.0 15.0 15.0 15.0 15.0 15.0 4.3 2.3 13.3 15.0 15.0 15.0 15.0 15.0 15.0 15.0 15.0 0.7 0.1 0.2
15.0 15.0 15.0 15.0 15.0 15.0 15.0 15.0 15.0 14.7 15.0 2.1 15.0 15.0 15.0 15.0 15.0 15.0 15.0 15.0 15.0 15.0 15.0 15.0 15.0 15.0 14.7 14.8 14.9 7.7 6.5 2.8 1.9 2.7 15.0 15.0 14.6 10.5 7.2 7.3 14.3 5.1 13.9 10.8
15.0 15.0 15.0 15.0 15.0 15.0 15.0 15.0 7.6 8.8 3.3 9.0 15.0 15.0 15.0 15.0 1.6 15.0 15.0 15.0 15.0 15.0 15.0 15.0 15.0 14.3 12.7 10.7 3.7 11.4 0.9 0.3 0.3 0.6 2.8 3.7 4.0 3.5 2.2 3.9 2.9 3.1 3.6 10.2
15.0 15.0 15.0 15.0 15.0 15.0 15.0 15.0 15.0 13.7 15.0 0.7 4.1 15.0 15.0 12.5 1.0 5.6 15.0 15.0 15.0 15.0 15.0 15.0 13.7 10.3 1.1 3.1 1.4 1.7 0.9 0.5 0.5 0.4 0.6 1.1 0.5 0.7 0.7 0.9 0.9 0.9 1.8 3.9
15.0 15.0 15.0 15.0 15.0 15.0 15.0 15.0 15.0 14.2 1.2 3.2 1.6 11.2 15.0 14.9 9.6 11.1 15.0 15.0 15.0 15.0 15.0 15.0 3.9 2.4 2.5 1.1 0.8 0.3 0.4 0.4 0.2 0.1 0.3 0.3 0.3 0.3 0.5 0.4 0.4 1.2 0.5 1.0
15.0 15.0 15.0 15.0 15.0 12.8 11.6 15.0 15.0 15.0 13.5 14.4 0.7 15.0 15.0 14.6 5.9 14.0 4.3 15.0 15.0 15.0 15.0 5.5 2.9 1.1 0.8 0.7 0.6 0.3 0.5 0.2 0.2 0.1 0.2 0.2 0.2 0.2 0.2 0.1 0.2 1.8 1.4 1.3
15.0 15.0 15.0 15.0 15.0 15.0 15.0 11.2 13.8 15.0 2.5 13.7 15.0 15.0 15.0 15.0 9.6 15.0 15.0 8.7 15.0 11.4 5.7 3.3 3.3 0.4 0.5 0.4 0.3 0.3 0.3 0.3 0.2 0.1 0.1 0.1 0.2 0.1 0.1 0.2 0.2 0.9 0.1 0.2
15.0 15.0 15.0 15.0 8.9 14.8 15.0 15.0 10.4 4.4 15.0 14.7 15.0 15.0 15.0 15.0 13.9 15.0 10.4 6.4 14.2 15.0 14.9 3.6 0.7 1.1 0.3 0.3 0.2 0.1 0.1 0.2 0.2 0.1 0.1 0.1 0.1 0.1 0.2 0.3 0.3 1.0 1.6 0.9
15.0 15.0 3.6 15.0 6.5 3.2 2.9 12.8 2.0 1.8 4.2 14.8 15.0 13.0 15.0 15.0 15.0 15.0 15.0 8.4 5.9 7.6 10.8 8.9 6.6 0.5 0.2 0.2 0.1 0.1 0.1 0.2 0.1 0.1 0.1 0.1 0.1 0.7 5.6 2.2 1.2 1.5 1.0 0.8
12.6 9.4 15.0 15.0 15.0 15.0 15.0 15.0 3.8 14.2 14.9 15.0 15.0 15.0 15.0 15.0 15.0 15.0 15.0 15.0 8.6 6.8 6.7 5.3 2.2 0.8 0.7 8.1 2.3 1.3 0.7 0.1 0.2 0.4 1.1 4.3 4.6 6.3 3.2 13.9 8.5 11.9 9.2 3.4
15.0 15.0 15.0 15.0 15.0 15.0 15.0 15.0 15.0 15.0 15.0 15.0 15.0 15.0 15.0 15.0 15.0 15.0 15.0 15.0 15.0 15.0 9.6 7.5 5.4 2.3 1.2 0.8 0.9 15.0 15.0 15.0 15.0 2.8 7.3 6.4 2.5 2.4 10.3 7.9 5.2 5.3 2.5 3.9
15.0 15.0 14.9 14.8 15.0 15.0 15.0 14.1 10.0 15.0 15.0 15.0 15.0 15.0 15.0 15.0 15.0 15.0 15.0 15.0 15.0 15.0 15.0 15.0 13.2 6.8 10.1 14.0 15.0 15.0 15.0 15.0 15.0 12.6 12.9 13.5 13.9 10.1 6.8 2.6 4.5 14.4 15.0 15.0
15.0 15.0 15.0 5.5 15.0 15.0 15.0 15.0 15.0 15.0 15.0 15.0 15.0 15.0 15.0 15.0 15.0 15.0 15.0 15.0 15.0 15.0 15.0 15.0 15.0 15.0 15.0 15.0 15.0 15.0 15.0 15.0 15.0 15.0 15.0 15.0 15.0 15.0 15.0 15.0 15.0 15.0 15.0 15.0
0.8 1.5 1.2 2.5 15.0 15.0 15.0 15.0 15.0 15.0 15.0 15.0 15.0 15.0 15.0 15.0 15.0 15.0 15.0 15.0 15.0 15.0 15.0 15.0 15.0 15.0 15.0 15.0 15.0 15.0 15.0 15.0 15.0 15.0 15.0 15.0 15.0 15.0 15.0 15.0 15.0 15.0 15.0 15.0
10.9 3.9 4.2 5.9 3.3 15.0 15.0 15.0 15.0 15.0 15.0 15.0 15.0 15.0 15.0 15.0 15.0 15.0 15.0 15.0 15.0 15.0 15.0 15.0 15.0 15.0 15.0 15.0 15.0 15.0 15.0 15.0 15.0 15.0 15.0 15.0 15.0 15.0 15.0 15.0 15.0 15.0 15.0 15.0
15.0 15.0 15.0 15.0 15.0 15.0 15.0 15.0 15.0 15.0 15.0 15.0 15.0 15.0 15.0 15.0 15.0 15.0 15.0 15.0 15.0 15.0 15.0 15.0 15.0 15.0 15.0 15.0 15.0 15.0 15.0 15.0 15.0 15.0 15.0 15.0 15.0 15.0 15.0 15.0 15.0 15.0 15.0 15.0
15.0 15.0 15.0 15.0 15.0 15.0 15.0 15.0 15.0 15.0 15.0 15.0 15.0 15.0 15.0 15.0 15.0 15.0 15.0 15.0 15.0 15.0 15.0 15.0 15.0 15.0 15.0 15.0 15.0 15.0 15.0 15.0 15.0 15.0 15.0 15.0 15.0 15.0 15.0 15.0 15.0 15.0 15.0 15.0
15.0 15.0 15.0 15.0 15.0 15.0 15.0 15.0 15.0 15.0 15.0 15.0 15.0 15.0 15.0 15.0 15.0 15.0 15.0 15.0 15.0 15.0 15.0 15.0 15.0 15.0 15.0 15.0 15.0 15.0 15.0 15.0 15.0 15.0 15.0 15.0 15.0 15.0 15.0 15.0 15.0 15.0 15.0 15.0
15.0 15.0 15.0 15.0 15.0 15.0 15.0 15.0 15.0 15.0 15.0 15.0 15.0 15.0 15.0 15.0 15.0 15.0 15.0 15.0 15.0 15.0 15.0 15.0 15.0 15.0 15.0 15.0 15.0 15.0 15.0 15.0 15.0 15.0 15.0 15.0 15.0 15.0 15.0 15.0 15.0 15.0 15.0 15.0

GFSCGP_sfc_vis_279.txt.gz
Visibility
15.0 15.0 15.0 15.0 15.0 15.0 15.0 15.0 15.0 15.0 15.0 15.0 15.0 15.0 15.0 15.0 15.0 15.0 15.0 15.0 15.0 15.0 15.0 15.0 15.0 15.0 15.0 15.0 15.0 15.0 15.0 15.0 15.0 15.0 15.0 15.0 15.0 15.0 15.0 15.0 15.0 15.0 15.0 15.0
15.0 15.0 15.0 15.0 15.0 15.0 15.0 15.0 15.0 15.0 15.0 15.0 15.0 15.0 15.0 15.0 15.0 15.0 15.0 15.0 15.0 15.0 15.0 15.0 15.0 15.0 14.9 14.8 15.0 15.0 15.0 14.9 15.0 15.0 15.0 15.0 15.0 15.0 15.0 15.0 15.0 15.0 15.0 15.0
15.0 15.0 15.0 15.0 15.0 15.0 15.0 15.0 15.0 15.0 15.0 15.0 15.0 15.0 15.0 15.0 15.0 15.0 15.0 15.0 15.0 15.0 15.0 15.0 15.0 15.0 13.0 15.0 13.8 15.0 15.0 13.8 15.0 15.0 15.0 15.0 15.0 15.0 15.0 15.0 15.0 15.0 15.0 15.0
15.0 15.0 15.0 15.0 15.0 15.0 15.0 15.0 15.0 15.0 15.0 15.0 15.0 15.0 15.0 15.0 15.0 15.0 15.0 15.0 15.0 15.0 15.0 15.0 15.0 15.0 15.0 15.0 13.8 8.5 7.4 3.1 0.1 1.0 15.0 15.0 15.0 15.0 15.0 15.0 15.0 15.0 15.0 15.0
15.0 15.0 15.0 15.0 15.0 15.0 15.0 15.0 15.0 15.0 15.0 15.0 15.0 13.6 15.0 15.0 15.0 15.0 15.0 15.0 15.0 15.0 15.0 15.0 15.0 15.0 15.0 12.2 10.7 11.5 7.4 5.8 0.0 0.2 15.0 15.0 15.0 15.0 15.0 15.0 15.0 15.0 15.0 15.0
15.0 15.0 15.0 15.0 15.0 15.0 15.0 15.0 15.0 15.0 15.0 9.2 15.0 15.0 15.0 15.0 15.0 15.0 15.0 15.0 15.0 15.0 15.0 15.0 15.0 15.0 15.0 10.8 11.1 12.0 9.4 1.0 0.1 0.1 15.0 15.0 15.0 15.0 15.0 15.0 15.0 15.0 15.0 15.0
15.0 15.0 15.0 15.0 15.0 15.0 15.0 15.0 15.0 9.9 9.4 15.0 15.0 15.0 15.0 15.0 15.0 15.0 15.0 15.0 15.0 15.0 15.0 15.0 15.0 15.0 15.0 15.0 14.7 1.7 0.2 0.2 0.2 0.3 8.9 15.0 15.0 15.0 15.0 15.0 15.0 15.0 15.0 15.0
15.0 15.0 15.0 15.0 15.0 15.0 15.0 15.0 15.0 15.0 15.0 15.0 15.0 15.0 15.0 15.0 15.0 14.9 15.0 15.0 15.0 15.0 15.0 15.0 15.0 15.0 15.0 13.6 4.7 0.9 0.3 0.1 0.1 1.0 14.9 15.0 15.0 15.0 15.0 15.0 15.0 15.0 0.3 0.5
15.0 15.0 15.0 15.0 15.0 15.0 15.0 15.0 15.0 15.0 13.2 4.7 15.0 15.0 15.0 15.0 15.0 0.8 15.0 15.0 15.0 15.0 15.0 15.0 15.0 15.0 15.0 10.8 0.6 0.3 1.4 0.2 0.4 3.2 13.4 14.8 14.4 10.5 6.5 9.6 15.0 13.3 14.6 8.2
15.0 15.0 15.0 15.0 15.0 15.0 15.0 15.0 12.6 6.3 3.7 5.9 15.0 15.0 15.0 15.0 15.0 15.0 15.0 15.0 15.0 15.0 15.0 15.0 15.0 14.5 13.6 2.0 1.1 0.7 0.5 0.2 0.2 0.5 0.7 1.0 2.6 2.3 2.5 4.2 3.0 2.1 2.5 4.4
15.0 15.0 15.0 15.0 15.0 15.0 15.0 15.0 15.0 15.0 15.0 3.4 1.4 15.0 15.0 15.0 15.0 15.0 15.0 15.0 15.0 15.0 15.0 15.0 12.6 15.0 14.4 2.1 0.5 0.2 0.2 0.2 0.4 0.6 1.0 0.9 1.0 1.0 1.0 1.0 0.8 0.8 1.6 2.1
15.0 15.0 15.0 15.0 15.0 15.0 15.0 15.0 15.0 15.0 1.5 12.0 5.5 11.2 15.0 15.0 15.0 15.0 15.0 15.0 15.0 15.0 15.0 14.3 15.0 1.1 1.8 3.1 1.2 0.6 0.3 0.2 0.2 0.4 0.4 0.2 0.2 0.3 0.4 0.5 0.4 0.7 0.5 0.8
15.0 15.0 15.0 13.2 11.1 14.5 15.0 15.0 15.0 15.0 15.0 15.0 5.5 15.0 15.0 15.0 15.0 15.0 15.0 15.0 15.0 15.0 15.0 2.3 12.2 1.3 2.5 0.7 0.3 0.2 0.1 0.1 0.2 0.3 0.2 0.1 0.1 0.3 0.2 0.2 0.3 0.5 1.2 0.9
15.0 15.0 15.0 15.0 15.0 15.0 15.0 15.0 15.0 15.0 15.0 13.9 15.0 15.0 10.3 15.0 15.0 15.0 15.0 15.0 15.0 15.0 15.0 11.9 3.9 7.9 4.8 1.0 0.4 0.3 0.1 0.1 0.2 0.1 0.1 0.1 0.1 0.1 0.1 0.1 0.1 0.3 1.2 3.0
15.0 15.0 15.0 15.0 15.0 15.0 15.0 15.0 15.0 15.0 15.0 15.0 12.4 9.9 15.0 15.0 15.0 15.0 15.0 15.0 15.0 15.0 15.0 13.2 15.0 6.7 4.8 1.5 0.4 0.3 0.1 0.2 0.2 0.1 0.1 0.1 0.1 0.1 0.2 0.2 0.1 0.1 0.3 0.4
15.0 14.9 15.0 15.0 15.0 15.0 10.8 15.0 14.9 14.9 14.9 14.8 15.0 15.0 15.0 15.0 15.0 15.0 15.0 15.0 15.0 15.0 15.0 15.0 15.0 5.0 0.8 0.3 0.1 0.1 0.1 0.1 0.1 0.1 0.1 0.1 0.1 0.1 0.2 0.3 0.4 0.8 2.8 3.7
15.0 15.0 15.0 15.0 15.0 15.0 10.6 15.0 11.9 15.0 15.0 15.0 15.0 11.6 15.0 15.0 15.0 15.0 15.0 15.0 15.0 15.0 15.0 15.0 14.1 7.4 0.7 0.3 0.2 0.3 0.2 0.1 0.1 0.3 6.5 14.8 15.0 15.0 10.7 14.8 15.0 1.7 2.0 4.6
15.0 15.0 15.0 15.0 15.0 15.0 15.0 15.0 15.0 15.0 15.0 15.0 15.0 15.0 15.0 15.0 15.0 15.0 15.0 15.0 15.0 15.0 15.0 8.9 1.6 0.8 0.5 2.0 2.1 11.3 15.0 14.3 15.0 15.0 15.0 15.0 15.0 15.0 11.5 15.0 3.9 1.5 1.2 3.6
15.0 15.0 15.0 15.0 15.0 15.0 15.0 15.0 15.0 15.0 15.0 15.0 15.0 15.0 15.0 15.0 15.0 15.0 15.0 15.0 15.0 15.0 15.0 14.1 14.5 8.9 13.6 14.3 15.0 15.0 15.0 15.0 9.0 3.5 3.5 13.8 15.0 15.0 15.0 15.0 5.0 2.4 11.3 13.3
15.0 15.0 15.0 13.7 15.0 15.0 0.5 15.0 15.0 15.0 15.0 15.0 15.0 15.0 15.0 15.0 15.0 14.1 15.0 15.0 15.0 15.0 15.0 15.0 15.0 15.0 15.0 13.8 15.0 15.0 15.0 15.0 15.0 15.0 15.0 15.0 15.0 15.0 9.3 13.2 15.0 15.0 15.0 15.0
1.2 7.6 2.2 15.0 15.0 15.0 13.0 15.0 15.0 15.0 0.7 15.0 15.0 15.0 15.0 15.0 7.3 6.0 15.0 15.0 15.0 15.0 15.0 15.0 15.0 15.0 15.0 15.0 15.0 15.0 15.0 15.0 15.0 15.0 15.0 15.0 15.0 15.0 15.0 15.0 15.0 15.0 15.0 15.0
12.8 9.8 8.7 9.3 9.4 15.0 15.0 15.0 15.0 0.0 15.0 15.0 15.0 15.0 15.0 15.0 15.0 15.0 15.0 15.0 15.0 15.0 15.0 15.0 15.0 15.0 15.0 15.0 15.0 15.0 15.0 15.0 15.0 15.0 15.0 15.0 15.0 15.0 15.0 15.0 15.0 15.0 15.0 15.0
15.0 15.0 15.0 15.0 15.0 8.1 15.0 4.1 15.0 15.0 2.1 15.0 15.0 15.0 15.0 15.0 15.0 15.0 15.0 15.0 15.0 15.0 15.0 15.0 15.0 15.0 15.0 15.0 15.0 15.0 15.0 15.0 15.0 15.0 15.0 15.0 15.0 15.0 15.0 15.0 15.0 15.0 15.0 15.0
15.0 15.0 15.0 15.0 15.0 15.0 15.0 15.0 15.0 15.0 15.0 15.0 15.0 15.0 15.0 15.0 15.0 15.0 15.0 15.0 15.0 15.0 15.0 15.0 15.0 15.0 15.0 15.0 15.0 15.0 15.0 15.0 15.0 15.0 15.0 15.0 15.0 15.0 15.0 15.0 15.0 15.0 15.0 15.0
15.0 15.0 15.0 15.0 15.0 15.0 15.0 15.0 15.0 15.0 15.0 15.0 15.0 15.0 15.0 15.0 15.0 15.0 15.0 15.0 15.0 15.0 15.0 15.0 15.0 15.0 15.0 15.0 15.0 15.0 15.0 15.0 15.0 15.0 15.0 15.0 15.0 15.0 15.0 15.0 15.0 15.0 15.0 15.0
15.0 15.0 15.0 15.0 15.0 15.0 15.0 15.0 15.0 15.0 15.0 15.0 15.0 15.0 15.0 15.0 15.0 15.0 15.0 15.0 15.0 15.0 15.0 15.0 15.0 15.0 15.0 15.0 15.0 15.0 15.0 15.0 15.0 15.0 15.0 15.0 15.0 15.0 15.0 15.0 15.0 15.0 15.0 15.0

GFSCGP_sfc_vis_285.txt.gz
Visibility
15.0 15.0 15.0 15.0 15.0 15.0 15.0 15.0 15.0 15.0 15.0 15.0 15.0 15.0 15.0 15.0 15.0 15.0 15.0 15.0 15.0 15.0 15.0 15.0 15.0 15.0 15.0 15.0 15.0 15.0 15.0 15.0 15.0 15.0 15.0 15.0 15.0 15.0 15.0 15.0 15.0 15.0 15.0 15.0
15.0 15.0 15.0 15.0 15.0 15.0 15.0 15.0 15.0 15.0 15.0 15.0 15.0 15.0 15.0 15.0 15.0 15.0 15.0 15.0 15.0 15.0 15.0 15.0 15.0 15.0 15.0 15.0 15.0 15.0 15.0 15.0 15.0 14.5 15.0 15.0 15.0 15.0 15.0 15.0 15.0 15.0 15.0 15.0
15.0 11.5 15.0 15.0 15.0 15.0 15.0 15.0 15.0 15.0 15.0 15.0 15.0 15.0 15.0 15.0 15.0 15.0 15.0 15.0 15.0 15.0 15.0 15.0 15.0 15.0 15.0 15.0 15.0 15.0 15.0 15.0 15.0 15.0 10.9 15.0 15.0 12.9 15.0 15.0 15.0 11.4 15.0 15.0
15.0 14.5 15.0 15.0 15.0 15.0 15.0 15.0 15.0 15.0 15.0 15.0 15.0 15.0 15.0 15.0 15.0 15.0 15.0 15.0 15.0 15.0 15.0 15.0 15.0 15.0 15.0 15.0 15.0 15.0 15.0 15.0 15.0 15.0 6.7 5.7 0.0 0.0 8.0 15.0 5.8 7.9 12.7 15.0
15.0 6.4 14.0 15.0 15.0 15.0 15.0 15.0 15.0 15.0 15.0 13.7 15.0 4.2 15.0 15.0 15.0 15.0 15.0 15.0 15.0 15.0 15.0 15.0 15.0 15.0 15.0 15.0 15.0 15.0 15.0 15.0 15.0 15.0 14.4 3.6 0.0 0.0 0.2 15.0 2.0 15.0 15.0 15.0
13.4 15.0 15.0 15.0 15.0 15.0 15.0 15.0 15.0 15.0 13.0 0.6 15.0 15.0 15.0 15.0 15.0 15.0 15.0 15.0 15.0 15.0 15.0 15.0 15.0 15.0 15.0 15.0 15.0 15.0 15.0 15.0 15.0 15.0 15.0 4.9 0.1 0.0 0.0 10.4 4.9 15.0 15.0 15.0
9.9 3.2 15.0 15.0 15.0 15.0 15.0 15.0 15.0 15.0 6.3 15.0 15.0 15.0 15.0 15.0 15.0 15.0 15.0 15.0 15.0 15.0 15.0 15.0 15.0 15.0 15.0 15.0 15.0 15.0 15.0 15.0 15.0 8.9 9.1 4.0 0.4 0.1 0.0 10.3 15.0 15.0 15.0 15.0
15.0 14.7 15.0 15.0 15.0 15.0 15.0 15.0 15.0 15.0 15.0 15.0 15.0 13.5 15.0 15.0 15.0 15.0 15.0 9.5 15.0 15.0 15.0 15.0 15.0 15.0 15.0 15.0 15.0 15.0 12.9 15.0 8.1 1.2 0.3 0.2 0.2 0.2 0.1 15.0 15.0 15.0 11.6 15.0
15.0 15.0 15.0 14.5 15.0 15.0 15.0 15.0 15.0 15.0 6.1 0.3 15.0 15.0 15.0 15.0 15.0 15.0 15.0 15.0 15.0 15.0 15.0 15.0 15.0 15.0 15.0 15.0 15.0 14.3 4.7 12.0 1.1 0.2 0.2 0.1 0.1 0.1 0.1 0.8 14.2 15.0 14.6 11.9
11.8 15.0 15.0 15.0 15.0 15.0 15.0 15.0 15.0 8.6 1.2 9.0 15.0 15.0 15.0 15.0 15.0 15.0 15.0 15.0 15.0 15.0 15.0 15.0 15.0 15.0 15.0 15.0 15.0 15.0 15.0 8.4 0.2 0.2 0.2 0.1 0.1 0.1 0.1 0.8 1.9 3.1 2.9 5.7
15.0 15.0 15.0 15.0 15.0 15.0 14.8 15.0 15.0 15.0 15.0 0.5 0.1 15.0 15.0 15.0 15.0 15.0 15.0 15.0 15.0 15.0 4.7 13.3 15.0 15.0 15.0 15.0 15.0 14.8 14.5 5.7 5.5 0.3 0.5 0.2 0.1 0.1 0.1 1.2 0.8 0.9 3.0 4.8
14.7 15.0 8.8 14.9 15.0 15.0 15.0 15.0 15.0 15.0 15.0 7.3 3.3 11.0 15.0 15.0 15.0 15.0 15.0 15.0 15.0 15.0 9.2 15.0 15.0 15.0 15.0 4.2 5.9 0.8 0.4 1.7 4.1 1.8 0.5 0.2 0.1 0.1 0.5 0.8 0.4 1.2 1.5 1.7
15.0 15.0 8.2 11.9 15.0 15.0 15.0 15.0 15.0 15.0 15.0 5.8 4.1 15.0 15.0 8.3 15.0 15.0 10.4 11.6 14.8 15.0 15.0 15.0 15.0 3.7 3.0 4.1 2.0 0.4 0.6 0.3 0.4 0.3 0.4 0.2 0.2 0.2 0.3 0.2 0.3 1.1 1.5 1.5
15.0 15.0 5.5 15.0 15.0 15.0 14.6 4.9 15.0 15.0 3.0 14.1 15.0 15.0 7.6 15.0 15.0 14.7 15.0 11.6 11.6 12.9 15.0 4.3 11.9 1.9 0.6 1.3 1.0 0.8 1.2 0.4 0.3 0.2 0.1 0.1 0.1 0.1 0.1 0.1 0.2 0.1 0.4 0.4
15.0 6.3 4.6 15.0 15.0 15.0 15.0 14.9 15.0 15.0 15.0 14.5 15.0 6.1 15.0 15.0 15.0 15.0 15.0 11.1 10.9 14.2 14.7 4.1 2.9 0.9 0.5 0.8 0.7 1.9 3.3 1.1 0.3 0.1 0.1 0.1 0.1 0.1 0.2 0.1 0.1 0.1 0.1 0.1
15.0 15.0 3.1 15.0 7.1 3.9 0.8 15.0 15.0 14.8 15.0 15.0 15.0 15.0 15.0 9.8 4.2 15.0 15.0 4.2 4.1 5.4 4.6 3.9 3.3 2.3 1.8 1.7 0.4 0.5 0.9 0.4 8.4 1.3 0.2 0.1 0.1 0.1 0.1 0.1 0.1 0.1 0.1 0.9
1.1 2.3 0.3 15.0 15.0 12.3 15.0 15.0 15.0 12.3 12.2 15.0 4.4 15.0 11.9 15.0 14.8 14.0 5.9 12.0 15.0 4.2 4.1 4.0 2.4 0.8 1.9 0.5 0.9 0.6 1.2 1.6 1.1 6.6 3.5 0.2 0.1 0.1 0.1 0.1 0.2 1.3 4.7 5.4
0.1 0.1 0.2 7.5 15.0 15.0 15.0 15.0 15.0 15.0 15.0 15.0 15.0 11.0 15.0 15.0 15.0 9.4 8.6 15.0 14.3 8.0 4.1 3.5 3.5 5.3 2.9 2.0 2.5 3.3 12.4 10.7 15.0 15.0 15.0 15.0 15.0 15.0 15.0 15.0 15.0 15.0 15.0 15.0
0.1 0.1 0.1 6.6 0.1 15.0 15.0 15.0 14.0 15.0 15.0 15.0 15.0 15.0 15.0 6.2 14.2 15.0 15.0 15.0 15.0 15.0 15.0 14.4 15.0 10.9 4.2 5.1 14.7 15.0 15.0 15.0 11.1 10.1 5.4 15.0 15.0 15.0 15.0 15.0 15.0 15.0 15.0 15.0
0.1 0.3 0.5 1.6 0.1 12.2 15.0 15.0 15.0 15.0 15.0 15.0 15.0 15.0 6.9 15.0 15.0 15.0 14.3 15.0 15.0 15.0 15.0 9.1 15.0 14.2 4.2 15.0 15.0 15.0 15.0 15.0 15.0 15.0 15.0 15.0 15.0 15.0 15.0 15.0 15.0 15.0 15.0 15.0
0.1 0.2 0.8 2.4 3.3 15.0 15.0 15.0 15.0 15.0 15.0 4.8 15.0 15.0 15.0 15.0 15.0 8.7 15.0 12.1 15.0 15.0 15.0 15.0 4.3 14.8 9.4 8.4 15.0 15.0 15.0 15.0 15.0 15.0 15.0 15.0 15.0 15.0 15.0 15.0 15.0 15.0 15.0 15.0
0.1 0.1 4.8 5.5 3.0 9.1 15.0 15.0 15.0 15.0 9.4 15.0 13.4 15.0 15.0 15.0 4.5 11.5 15.0 15.0 15.0 15.0 15.0 15.0 15.0 15.0 15.0 15.0 15.0 15.0 15.0 15.0 15.0 15.0 15.0 15.0 15.0 15.0 15.0 15.0 11.8 10.0 15.0 15.0
0.1 0.3 1.7 15.0 15.0 15.0 15.0 15.0 15.0 15.0 15.0 15.0 15.0 15.0 15.0 15.0 14.1 15.0 15.0 15.0 15.0 15.0 15.0 15.0 15.0 15.0 15.0 15.0 15.0 15.0 15.0 15.0 15.0 15.0 15.0 15.0 11.9 15.0 15.0 15.0 15.0 13.1 12.3 15.0
7.4 0.7 0.1 2.6 15.0 15.0 15.0 15.0 15.0 15.0 15.0 15.0 15.0 15.0 15.0 15.0 15.0 15.0 15.0 15.0 15.0 15.0 15.0 15.0 15.0 15.0 15.0 15.0 15.0 15.0 15.0 15.0 15.0 15.0 15.0 9.2 15.0 15.0 15.0 12.0 15.0 15.0 15.0 14.1
15.0 14.8 13.8 15.0 15.0 15.0 15.0 15.0 15.0 15.0 15.0 15.0 15.0 15.0 15.0 15.0 15.0 15.0 15.0 15.0 15.0 15.0 15.0 15.0 15.0 15.0 15.0 15.0 15.0 15.0 15.0 15.0 15.0 15.0 15.0 15.0 15.0 15.0 15.0 15.0 15.0 15.0 15.0 15.0
15.0 15.0 15.0 14.9 14.1 15.0 15.0 15.0 15.0 15.0 15.0 15.0 15.0 15.0 15.0 15.0 15.0 15.0 15.0 15.0 15.0 15.0 15.0 15.0 15.0 15.0 15.0 15.0 15.0 15.0 15.0 15.0 15.0 15.0 15.0 15.0 15.0 15.0 15.0 15.0 15.0 15.0 15.0 15.0

GFSCGP_sfc_vis_291.txt.gz
Visibility
15.0 15.0 15.0 15.0 15.0 15.0 15.0 15.0 15.0 15.0 11.9 15.0 15.0 15.0 15.0 15.0 15.0 15.0 15.0 15.0 15.0 15.0 15.0 15.0 15.0 15.0 15.0 15.0 15.0 15.0 15.0 15.0 15.0 15.0 15.0 15.0 15.0 15.0 15.0 15.0 15.0 15.0 15.0 15.0
15.0 15.0 15.0 15.0 15.0 15.0 15.0 15.0 15.0 15.0 15.0 14.4 15.0 15.0 15.0 15.0 15.0 15.0 15.0 15.0 15.0 15.0 15.0 15.0 15.0 15.0 15.0 15.0 15.0 15.0 15.0 15.0 15.0 15.0 15.0 15.0 15.0 15.0 15.0 15.0 15.0 15.0 15.0 15.0
15.0 15.0 15.0 15.0 15.0 15.0 15.0 15.0 15.0 15.0 15.0 15.0 15.0 15.0 15.0 15.0 15.0 15.0 15.0 15.0 15.0 15.0 15.0 15.0 15.0 15.0 15.0 15.0 15.0 15.0 15.0 15.0 15.0 15.0 15.0 15.0 15.0 15.0 15.0 15.0 15.0 15.0 15.0 15.0
15.0 15.0 15.0 15.0 15.0 15.0 15.0 15.0 15.0 15.0 15.0 15.0 15.0 15.0 15.0 15.0 15.0 15.0 15.0 15.0 15.0 15.0 15.0 15.0 15.0 15.0 15.0 15.0 15.0 15.0 15.0 15.0 15.0 15.0 15.0 15.0 11.0 15.0 15.0 15.0 15.0 15.0 15.0 15.0
15.0 15.0 15.0 15.0 15.0 15.0 15.0 15.0 15.0 15.0 15.0 15.0 15.0 4.9 15.0 15.0 15.0 15.0 15.0 15.0 15.0 15.0 15.0 15.0 15.0 15.0 15.0 15.0 15.0 15.0 15.0 15.0 15.0 15.0 15.0 8.4 15.0 15.0 15.0 15.0 15.0 15.0 15.0 15.0
15.0 15.0 15.0 15.0 15.0 15.0 15.0 15.0 15.0 15.0 15.0 5.8 15.0 15.0 15.0 15.0 15.0 15.0 15.0 15.0 15.0 15.0 15.0 15.0 15.0 15.0 15.0 15.0 15.0 15.0 15.0 15.0 15.0 15.0 15.0 12.7 5.5 15.0 14.6 15.0 15.0 15.0 5.8 15.0
15.0 15.0 15.0 15.0 15.0 15.0 10.4 8.9 15.0 15.0 15.0 15.0 15.0 12.5 15.0 15.0 15.0 15.0 15.0 15.0 15.0 15.0 15.0 15.0 15.0 15.0 15.0 15.0 15.0 15.0 15.0 15.0 15.0 15.0 15.0 15.0 2.5 7.5 7.6 13.6 9.4 15.0 10.9 0.2
0.8 12.9 15.0 12.9 0.1 0.3 15.0 14.7 15.0 15.0 15.0 15.0 15.0 1.4 15.0 15.0 15.0 15.0 15.0 15.0 15.0 15.0 15.0 15.0 15.0 15.0 15.0 15.0 15.0 15.0 15.0 11.0 15.0 15.0 15.0 14.9 5.2 1.3 2.8 0.9 3.1 15.0 0.3 9.9
0.4 6.0 15.0 14.9 3.1 4.4 13.5 3.0 11.1 10.1 4.0 2.6 14.2 15.0 15.0 15.0 15.0 15.0 15.0 15.0 15.0 15.0 15.0 15.0 15.0 15.0 15.0 15.0 15.0 15.0 12.1 14.2 15.0 15.0 6.2 11.2 3.3 2.1 2.3 0.8 1.5 1.3 1.2 11.6
0.2 0.1 14.0 1.0 15.0 13.5 3.9 15.0 15.0 15.0 15.0 15.0 15.0 15.0 15.0 15.0 15.0 15.0 15.0 15.0 15.0 15.0 15.0 15.0 15.0 15.0 15.0 15.0 15.0 15.0 15.0 4.2 4.6 11.0 6.5 7.5 6.9 0.7 1.3 0.3 0.6 1.1 0.2 1.4
14.6 0.1 1.2 0.1 0.2 0.5 13.6 15.0 15.0 15.0 15.0 15.0 7.0 15.0 15.0 15.0 15.0 15.0 15.0 15.0 15.0 15.0 15.0 15.0 15.0 15.0 15.0 15.0 15.0 8.6 4.3 2.9 4.9 5.5 3.7 3.5 4.6 0.6 0.3 0.2 0.3 0.3 1.5 1.0
1.7 0.1 3.6 0.2 0.1 0.5 14.0 15.0 15.0 15.0 15.0 3.6 11.8 11.2 15.0 15.0 15.0 15.0 15.0 15.0 15.0 15.0 15.0 15.0 15.0 15.0 15.0 7.4 5.5 4.0 3.9 2.5 3.0 3.1 2.3 3.0 1.6 1.5 0.9 0.3 0.2 1.2 1.9 1.6
0.2 0.1 0.1 0.1 0.1 0.1 4.5 15.0 15.0 15.0 15.0 3.5 4.2 15.0 15.0 7.8 14.9 15.0 15.0 15.0 14.2 15.0 15.0 15.0 15.0 15.0 4.2 4.0 3.7 2.2 3.0 1.8 1.7 1.8 4.9 5.8 1.3 2.5 4.0 1.6 0.5 2.1 15.0 6.5
1.0 0.4 0.1 0.1 0.1 6.8 15.0 15.0 9.4 15.0 6.6 13.7 15.0 15.0 15.0 15.0 15.0 15.0 15.0 15.0 15.0 10.6 12.9 10.3 14.4 15.0 4.3 2.6 1.5 2.2 3.8 2.5 3.1 4.3 4.7 2.9 1.3 2.2 2.5 2.1 1.7 0.5 7.6 8.3
0.1 0.5 0.1 0.9 0.1 0.1 3.6 15.0 13.9 14.7 15.0 15.0 15.0 15.0 15.0 15.0 15.0 15.0 14.9 15.0 15.0 15.0 15.0 12.1 4.4 4.1 3.5 2.9 3.5 3.7 3.8 3.8 3.9 4.1 4.8 1.2 2.4 3.0 9.8 5.1 0.8 0.3 1.1 2.2
0.5 2.0 0.1 2.1 0.9 1.1 1.1 15.0 15.0 14.9 6.7 15.0 15.0 15.0 14.9 13.2 5.9 15.0 15.0 15.0 15.0 15.0 15.0 15.0 6.3 4.1 3.5 3.4 3.3 3.8 3.8 2.2 1.0 4.5 1.0 2.3 4.7 13.0 6.3 3.8 1.6 0.4 0.6 1.3
0.1 0.5 0.3 1.9 0.8 15.0 14.4 15.0 13.7 13.0 7.5 14.5 4.4 15.0 11.9 15.0 15.0 15.0 15.0 13.3 15.0 15.0 15.0 15.0 15.0 10.5 4.1 2.9 5.8 4.1 4.0 6.6 5.0 2.0 1.5 3.5 5.9 6.4 6.0 0.6 0.1 0.4 0.1 0.1
0.3 0.3 1.0 0.2 0.3 15.0 15.0 15.0 15.0 15.0 15.0 15.0 15.0 15.0 15.0 15.0 15.0 15.0 15.0 15.0 15.0 15.0 15.0 15.0 15.0 13.6 5.3 4.3 4.9 4.9 11.3 15.0 7.7 3.8 5.0 4.1 12.4 5.2 5.9 15.0 10.0 9.3 15.0 15.0
0.2 0.2 0.8 0.1 0.1 15.0 15.0 2.8 15.0 14.1 15.0 15.0 15.0 15.0 15.0 15.0 10.6 15.0 15.0 15.0 15.0 15.0 15.0 15.0 15.0 15.0 8.3 4.1 14.2 5.3 5.6 7.2 13.4 5.1 5.6 7.8 15.0 10.3 15.0 15.0 15.0 15.0 15.0 15.0
0.3 0.1 0.2 0.1 0.3 13.3 15.0 15.0 15.0 15.0 15.0 15.0 15.0 15.0 15.0 15.0 15.0 15.0 15.0 11.3 15.0 15.0 15.0 15.0 15.0 15.0 9.6 13.0 14.8 15.0 14.3 15.0 8.2 14.5 15.0 12.2 15.0 15.0 15.0 15.0 15.0 3.6 6.7 9.5
0.7 0.2 0.3 0.1 0.1 15.0 15.0 15.0 15.0 15.0 15.0 15.0 15.0 15.0 15.0 15.0 15.0 15.0 4.6 15.0 15.0 15.0 15.0 15.0 15.0 15.0 15.0 13.1 5.6 8.9 15.0 12.8 15.0 15.0 15.0 15.0 15.0 15.0 15.0 15.0 14.1 15.0 15.0 15.0
10.5 3.6 4.0 0.2 0.1 13.6 15.0 15.0 15.0 15.0 15.0 15.0 11.9 15.0 15.0 15.0 15.0 15.0 15.0 15.0 15.0 15.0 14.6 15.0 15.0 15.0 15.0 15.0 15.0 15.0 15.0 15.0 15.0 15.0 15.0 15.0 15.0 15.0 13.5 14.8 4.1 6.0 4.5 4.1
0.7 14.7 5.4 15.0 14.8 15.0 15.0 15.0 15.0 15.0 15.0 15.0 15.0 15.0 15.0 15.0 15.0 15.0 15.0 15.0 15.0 15.0 15.0 15.0 15.0 15.0 15.0 15.0 15.0 15.0 15.0 15.0 15.0 15.0 15.0 15.0 7.2 14.8 14.6 7.2 4.7 5.4 4.3 4.3
15.0 15.0 8.0 5.4 15.0 15.0 15.0 15.0 15.0 15.0 15.0 15.0 15.0 15.0 15.0 15.0 15.0 15.0 15.0 15.0 15.0 15.0 15.0 15.0 15.0 15.0 15.0 15.0 15.0 15.0 15.0 15.0 15.0 15.0 15.0 15.0 6.6 14.7 5.3 13.2 14.9 13.8 5.5 6.3
15.0 15.0 9.3 13.0 15.0 15.0 15.0 15.0 15.0 15.0 15.0 15.0 15.0 15.0 15.0 15.0 15.0 15.0 15.0 15.0 15.0 15.0 15.0 15.0 15.0 15.0 15.0 15.0 15.0 15.0 15.0 15.0 15.0 15.0 15.0 15.0 15.0 15.0 15.0 15.0 15.0 15.0 15.0 15.0
15.0 0.4 0.1 2.2 15.0 15.0 15.0 15.0 15.0 15.0 15.0 15.0 15.0 15.0 15.0 15.0 15.0 15.0 15.0 15.0 15.0 15.0 15.0 15.0 15.0 15.0 15.0 15.0 15.0 15.0 15.0 15.0 15.0 15.0 15.0 15.0 15.0 15.0 15.0 15.0 15.0 15.0 15.0 15.0